Dewpoint
50 50 51 51 50 50 46 47 43 47 47 43 39 37 33 35 32 35 33 32 30 28 29 28 27 27 30 32 33 31 33 30 27 28 31 32 32 30 29 23 19 23 21 22
50 50 50 50 50 49 45 41 40 49 47 40 38 35 34 34 33 33 33 32 32 31 29 27 28 29 33 34 33 33 32 29 22 24 25 28 27 28 30 27 26 23 19 16
49 50 50 51 50 49 46 42 39 42 41 38 32 32 32 32 37 34 33 32 32 30 29 30 29 28 35 34 35 40 37 30 26 22 22 26 25 25 26 27 24 23 21 20
48 49 51 51 50 49 46 41 37 38 39 34 33 34 32 31 32 34 34 32 31 30 26 26 26 28 31 35 39 36 34 28 28 29 28 28 27 26 25 24 25 24 22 22
48 48 50 50 50 49 45 40 37 36 33 33 32 33 32 31 32 32 30 31 31 30 28 27 27 27 27 26 35 34 35 29 29 25 27 27 25 25 25 25 24 24 24 23
48 48 50 50 49 48 43 41 39 36 35 31 29 30 31 32 33 33 33 31 30 29 30 31 30 30 30 29 28 32 31 30 26 23 27 26 23 22 23 23 23 23 22 24
48 48 49 50 49 47 44 41 40 35 28 29 28 32 32 32 32 32 32 33 31 33 34 33 32 32 31 30 28 29 27 29 28 24 24 17 23 20 20 22 23 23 22 23
48 48 47 48 49 48 43 42 41 37 30 26 24 28 31 31 32 32 32 33 33 35 33 29 23 24 24 25 28 28 29 28 26 21 21 23 22 21 22 21 19 22 21 23
48 48 47 48 48 48 44 42 42 40 34 27 26 27 27 28 27 29 33 35 36 36 32 26 21 16 14 20 26 28 29 29 27 23 21 17 18 23 26 26 19 22 23 22
50 48 47 47 48 48 45 42 42 41 35 32 30 28 29 30 30 29 31 33 35 36 31 26 21 20 19 14 16 24 26 26 26 25 23 24 23 26 28 16 13 22 23 24
52 49 47 46 47 48 44 42 41 40 37 36 33 33 31 33 33 27 33 33 34 34 30 26 24 22 20 21 18 25 25 24 24 24 22 20 27 27 20 21 23 23 26 26
52 51 48 46 47 47 46 41 38 37 37 36 36 35 35 34 35 34 33 31 31 33 31 30 28 25 24 21 17 20 16 22 21 24 24 26 28 26 28 27 26 26 26 27
53 52 50 47 45 46 45 43 41 40 37 37 36 35 36 35 35 36 32 32 34 35 37 35 32 29 29 24 23 23 22 21 21 20 20 20 22 27 27 27 27 27 27 27
53 53 52 50 46 46 46 43 41 39 36 33 32 33 33 34 34 35 36 35 36 36 38 35 33 29 29 26 26 26 25 25 23 22 22 22 23 23 23 24 26 26 28 29
51 52 52 51 47 46 46 45 43 41 36 33 33 34 32 32 33 34 35 35 35 35 33 33 32 33 31 30 29 28 28 24 23 22 23 22 22 25 26 26 27 28 29 30
50 51 51 51 48 46 43 36 41 41 38 34 32 33 31 32 33 33 33 34 34 35 34 33 33 34 32 30 28 27 28 28 27 24 26 26 26 28 27 27 29 30 30 29
50 50 51 51 48 45 39 37 40 40 38 34 31 32 30 32 32 33 33 34 34 33 34 33 32 32 32 30 26 23 24 25 28 28 28 27 28 27 29 29 30 32 29 29
49 49 50 51 48 46 42 43 41 39 35 34 30 30 29 32 30 29 32 32 32 34 32 33 31 31 32 29 28 27 28 27 27 26 27 28 29 29 29 30 30 29 29 27
48 50 47 45 43 40 40 43 42 39 35 32 31 29 29 31 30 31 30 30 26 32 31 30 30 28 27 28 28 27 27 28 28 29 29 28 28 29 30 30 29 27 26 27
47 44 40 37 40 43 40 37 35 34 35 33 30 32 28 30 29 28 28 29 27 26 27 29 29 25 27 27 27 27 28 30 29 26 26 27 27 29 29 29 27 28 28 29
43 40 37 38 42 38 37 33 31 32 30 32 30 29 30 30 30 29 31 30 28 24 26 26 26 25 26 27 27 28 28 28 28 30 31 30 29 28 27 27 28 29 29 29
42 40 39 39 35 33 31 30 31 30 27 30 29 29 30 30 30 30 29 26 28 23 27 24 21 25 27 28 27 27 28 27 28 30 31 30 29 28 27 28 27 28 28 28
42 37 33 32 33 27 26 24 26 27 29 29 27 25 28 28 29 29 29 24 24 25 22 20 22 27 25 27 26 26 27 28 29 29 30 29 27 28 29 28 29 30 30 29
35 32 29 28 26 29 28 27 27 29 30 29 29 27 28 28 29 29 26 27 25 18 17 18 25 28 29 27 25 26 26 26 26 26 26 26 27 28 28 28 28 28 27 26
31 32 25 27 28 29 28 30 27 27 31 31 28 28 27 26 28 29 28 24 20 20 18 26 32 31 28 26 25 25 26 27 28 26 26 27 26 27 27 27 27 27 26 23
33 31 28 31 30 29 26 25 26 29 30 28 28 29 26 26 27 26 17 19 16 20 26 31 31 28 27 26 25 24 25 24 25 28 28 27 27 27 27 26 26 26 25 23
32 29 31 30 27 27 28 30 29 31 29 24 29 25 22 27 23 21 25 21 24 28 29 29 29 29 27 26 25 23 23 24 24 25 26 27 26 25 25 25 26 25 25 24
Lifted_Index
12 12 12 12 12 11 10 8 7 7 6 5 6 7 7 8 7 7 7 6 6 6 5 5 5 5 6 6 6 6 6 5 4 4 5 5 5 6 6 5 4 4 3 2
13 13 13 13 13 12 10 8 8 7 7 6 6 7 7 7 7 7 7 7 6 6 6 5 6 6 6 6 6 6 6 5 4 4 5 6 6 6 6 6 5 4 3 3
13 13 13 13 13 12 11 9 8 8 7 7 7 7 7 7 7 7 7 7 7 7 6 6 6 6 7 7 7 7 6 6 5 4 5 6 6 7 7 7 5 4 4 4
12 13 13 13 13 12 11 10 9 9 9 9 8 8 8 7 8 8 8 8 7 7 7 6 6 7 7 7 7 8 7 6 5 5 6 7 7 7 7 7 6 5 5 5
12 13 13 14 13 12 11 11 10 10 10 10 9 9 9 8 8 9 9 8 8 8 8 7 8 8 8 8 8 8 8 7 6 5 6 7 6 6 7 7 7 7 6 6
11 12 13 14 14 13 13 12 12 11 11 10 10 10 10 10 10 10 9 9 9 9 9 9 9 10 10 10 10 10 9 9 7 5 5 6 5 6 7 7 8 8 8 8
10 11 13 14 15 15 14 14 13 12 11 11 11 11 11 11 11 10 10 10 10 10 11 11 10 10 10 10 11 11 11 10 8 5 4 4 6 8 9 9 9 10 10 10
9 10 12 14 15 16 16 15 14 13 12 12 12 12 12 12 11 11 11 12 12 12 12 11 9 8 9 9 10 11 12 11 8 5 3 4 6 9 10 9 9 10 11 11
10 10 11 12 14 16 16 16 15 13 12 12 13 13 13 13 12 12 12 12 13 13 12 10 8 7 7 7 8 10 11 10 8 5 3 3 6 9 10 9 8 10 12 12
10 10 11 12 13 15 15 16 16 13 11 11 12 13 13 13 13 13 13 13 13 12 11 9 7 7 7 7 7 8 8 8 7 5 3 4 7 10 10 8 8 10 12 12
10 11 11 11 12 14 14 15 16 14 10 10 12 12 13 14 14 13 13 13 13 12 11 10 9 8 8 7 7 7 7 6 5 4 4 5 9 10 9 9 10 11 12 12
11 11 11 11 12 13 13 14 15 14 11 9 11 13 14 15 15 14 14 13 13 12 12 11 10 9 9 7 6 7 7 7 6 6 6 8 10 10 10 11 11 12 12 12
12 11 11 11 12 12 13 13 14 13 11 9 11 12 14 15 15 15 14 14 14 13 13 12 11 10 10 8 7 8 9 9 8 7 8 9 11 11 11 11 11 12 12 12
12 12 12 12 12 12 12 13 14 13 11 9 10 12 13 14 15 15 15 15 15 14 14 13 12 11 11 10 8 7 8 9 8 8 9 10 11 11 11 11 11 12 12 12
12 12 12 12 12 12 12 13 14 15 13 11 10 11 12 13 14 15 15 15 15 15 14 13 12 13 12 10 8 6 6 8 8 8 10 11 11 11 11 11 12 12 12 12
12 12 12 12 12 12 12 13 15 17 15 13 11 10 11 12 13 14 14 15 15 15 14 13 13 13 12 9 6 4 6 8 9 10 11 12 12 12 12 12 12 12 12 12
11 11 12 12 12 12 12 13 15 17 16 14 12 11 11 12 12 12 13 14 14 15 14 13 12 12 11 8 5 5 7 9 10 11 11 12 12 13 13 13 13 13 13 13
11 11 11 12 12 12 12 13 15 16 16 14 13 12 11 11 11 11 12 12 13 14 13 12 11 11 9 6 5 6 7 9 10 11 11 12 12 13 13 13 13 13 13 13
12 12 12 12 12 12 13 14 15 15 15 14 13 12 12 11 11 11 12 12 12 12 12 12 11 9 7 5 5 6 8 9 10 10 11 11 12 12 13 13 13 13 12 12
12 12 12 12 12 13 13 13 14 14 15 14 13 11 11 12 11 11 11 11 10 10 11 11 10 8 6 6 6 8 9 9 10 9 10 11 11 12 13 13 13 12 12 12
12 12 12 13 13 13 13 13 13 13 13 13 11 10 11 12 11 11 11 10 9 9 9 10 8 7 6 7 8 9 9 10 10 10 10 11 11 12 12 13 13 13 12 12
12 12 12 13 13 13 13 13 12 12 11 10 10 9 10 11 11 10 10 9 9 9 9 9 8 7 7 8 9 9 10 10 10 10 10 10 11 11 12 12 13 13 12 12
11 11 12 13 14 14 13 12 11 10 9 9 8 8 9 10 10 9 8 8 8 8 8 8 7 6 7 8 9 9 10 10 9 9 9 10 10 11 12 12 12 12 12 12
10 10 11 12 13 13 12 11 9 8 8 7 7 7 7 8 8 7 6 6 7 7 6 5 5 5 5 6 7 8 8 8 8 8 9 9 10 11 11 11 11 12 12 12
8 9 10 11 11 10 9 8 7 6 6 6 6 6 6 7 6 6 6 5 6 5 4 3 3 3 4 5 6 6 6 6 6 7 8 8 9 10 10 11 11 11 11 12
8 8 9 10 9 8 7 7 6 6 5 5 5 5 5 5 5 5 5 5 5 4 3 3 3 3 4 5 5 5 5 5 5 6 6 7 8 9 9 10 10 10 11 11
7 8 9 9 8 8 7 7 6 6 5 5 5 5 4 4 5 5 5 5 5 4 3 3 3 3 4 5 5 5 5 5 5 5 5 6 6 8 9 9 9 10 10 11